Time,TemperatureF,DewpointF,PressureIn,WindDirection,WindDirectionDegrees,WindSpeedMPH,WindSpeedGustMPH,Humidity,HourlyPrecipIn,Conditions,Clouds,dailyrainin,SoftwareType,DateUTC
2013-08-19 00:02:00,72.3,56.2,30.08,NE,38,0.0,0.0,57,0.00,,,0.00,WeatherDisplay:10.36,2013-08-19 05:02:00,
2013-08-19 00:07:00,72.3,56.7,30.08,NE,38,0.0,0.0,58,0.00,,,0.00,WeatherDisplay:10.36,2013-08-19 05:07:00,
2013-08-19 00:12:00,72.1,56.5,30.08,NE,38,0.0,0.0,58,0.00,,,0.00,WeatherDisplay:10.36,2013-08-19 05:12:00,
2013-08-19 00:17:00,72.1,57.0,30.08,NE,38,0.0,0.0,59,0.00,,,0.00,WeatherDisplay:10.36,2013-08-19 05:17:00,
2013-08-19 00:22:00,72.0,56.8,30.08,NE,38,0.0,0.0,59,0.00,,,0.00,WeatherDisplay:10.36,2013-08-19 05:22:00,
2013-08-19 00:27:00,71.8,56.7,30.08,NE,38,0.0,0.0,59,0.00,,,0.00,WeatherDisplay:10.36,2013-08-19 05:27:00,
2013-08-19 00:32:00,71.6,57.0,30.08,NE,38,0.0,0.0,60,0.00,,,0.00,WeatherDisplay:10.36,2013-08-19 05:32:00,
2013-08-19 00:37:00,71.4,56.8,30.08,NE,38,0.0,0.0,60,0.00,,,0.00,WeatherDisplay:10.36,2013-08-19 05:37:00,
2013-08-19 00:42:00,71.4,56.8,30.08,NE,38,0.0,0.0,60,0.00,,,0.00,WeatherDisplay:10.36,2013-08-19 05:42:00,
2013-08-19 00:47:00,71.2,57.1,30.08,NE,39,0.0,0.0,61,0.00,,,0.00,WeatherDisplay:10.36,2013-08-19 05:47:00,
2013-08-19 00:52:00,71.1,56.9,30.08,NE,38,0.0,0.0,61,0.00,,,0.00,WeatherDisplay:10.36,2013-08-19 05:52:00,
2013-08-19 00:57:00,71.1,56.9,30.08,NE,38,0.0,0.0,61,0.00,,,0.00,WeatherDisplay:10.36,2013-08-19 05:57:00,
2013-08-19 01:02:00,70.9,57.2,30.08,NE,38,0.0,0.0,62,0.00,,,0.00,WeatherDisplay:10.36,2013-08-19 06:02:00,
2013-08-19 01:07:00,70.7,57.0,30.08,NE,38,0.0,0.0,62,0.00,,,0.00,WeatherDisplay:10.36,2013-08-19 06:07:00,
2013-08-19 01:12:00,70.5,57.3,30.08,NE,38,0.0,0.0,63,0.00,,,0.00,WeatherDisplay:10.36,2013-08-19 06:12:00,
2013-08-19 01:17:00,70.5,57.3,30.08,NE,38,0.0,0.0,63,0.00,,,0.00,WeatherDisplay:10.36,2013-08-19 06:17:00,
2013-08-19 01:22:00,70.3,57.1,30.08,NE,38,0.0,0.0,63,0.00,,,0.00,WeatherDisplay:10.36,2013-08-19 06:22:00,
2013-08-19 01:27:00,70.3,57.6,30.08,NE,38,0.0,0.0,64,0.00,,,0.00,WeatherDisplay:10.36,2013-08-19 06:27:00,
2013-08-19 01:32:00,70.2,57.4,30.08,NE,39,0.0,0.0,64,0.00,,,0.00,WeatherDisplay:10.36,2013-08-19 06:32:00,
2013-08-19 01:37:00,70.2,57.4,30.08,NE,38,0.0,0.0,64,0.00,,,0.00,WeatherDisplay:10.36,2013-08-19 06:37:00,
2013-08-19 01:42:00,70.0,57.2,30.08,NE,38,0.0,0.0,64,0.00,,,0.00,WeatherDisplay:10.36,2013-08-19 06:42:00,
2013-08-19 01:47:00,70.0,57.7,30.08,NE,38,0.0,0.0,65,0.00,,,0.00,WeatherDisplay:10.36,2013-08-19 06:47:00,
2013-08-19 01:52:00,69.8,57.5,30.08,NE,39,0.0,0.0,65,0.00,,,0.00,WeatherDisplay:10.36,2013-08-19 06:52:00,
2013-08-19 01:57:00,69.8,57.5,30.08,NE,39,0.0,0.0,65,0.00,,,0.00,WeatherDisplay:10.36,2013-08-19 06:57:00,
2013-08-19 02:02:00,69.6,57.3,30.08,NE,39,0.0,0.0,65,0.00,,,0.00,WeatherDisplay:10.36,2013-08-19 07:02:00,
2013-08-19 02:07:00,69.6,57.3,30.08,NE,38,0.0,0.0,65,0.00,,,0.00,WeatherDisplay:10.36,2013-08-19 07:07:00,
2013-08-19 02:12:00,69.4,57.2,30.08,NE,38,0.0,0.0,65,0.00,,,0.00,WeatherDisplay:10.36,2013-08-19 07:12:00,
2013-08-19 02:17:00,69.4,57.6,30.08,NE,38,0.0,0.0,66,0.00,,,0.00,WeatherDisplay:10.36,2013-08-19 07:17:00,
2013-08-19 02:22:00,69.4,57.6,30.08,NE,38,0.0,0.0,66,0.00,,,0.00,WeatherDisplay:10.36,2013-08-19 07:22:00,
2013-08-19 02:27:00,69.3,57.4,30.08,NE,38,0.0,0.0,66,0.00,,,0.00,WeatherDisplay:10.36,2013-08-19 07:27:00,
2013-08-19 02:32:00,69.3,57.4,30.08,NE,38,0.0,0.0,66,0.00,,,0.00,WeatherDisplay:10.36,2013-08-19 07:32:00,
2013-08-19 02:37:00,69.1,57.2,30.08,NE,38,0.0,0.0,66,0.00,,,0.00,WeatherDisplay:10.36,2013-08-19 07:37:00,
2013-08-19 02:42:00,69.1,57.7,30.08,NE,38,0.0,0.0,67,0.00,,,0.00,WeatherDisplay:10.36,2013-08-19 07:42:00,
2013-08-19 02:47:00,68.9,57.5,30.08,NE,38,0.0,0.0,67,0.00,,,0.00,WeatherDisplay:10.36,2013-08-19 07:47:00,
2013-08-19 02:52:00,68.9,57.5,30.08,NE,38,0.0,0.0,67,0.00,,,0.00,WeatherDisplay:10.36,2013-08-19 07:52:00,
2013-08-19 02:57:00,68.9,57.5,30.08,NE,38,0.0,0.0,67,0.00,,,0.00,WeatherDisplay:10.36,2013-08-19 07:57:00,
2013-08-19 03:02:00,68.9,57.5,30.08,NE,39,0.0,0.0,67,0.00,,,0.00,WeatherDisplay:10.36,2013-08-19 08:02:00,
2013-08-19 03:07:00,68.7,57.7,30.08,NE,38,0.0,0.0,68,0.00,,,0.00,WeatherDisplay:10.36,2013-08-19 08:07:00,
2013-08-19 03:12:00,68.7,57.7,30.08,NE,38,0.0,0.0,68,0.00,,,0.00,WeatherDisplay:10.36,2013-08-19 08:12:00,
2013-08-19 03:17:00,68.5,57.6,30.08,NE,38,0.0,0.0,68,0.00,,,0.00,WeatherDisplay:10.36,2013-08-19 08:17:00,
2013-08-19 03:22:00,68.5,57.6,30.08,NE,38,0.0,0.0,68,0.00,,,0.00,WeatherDisplay:10.36,2013-08-19 08:22:00,
2013-08-19 03:27:00,68.5,57.6,30.08,NE,38,0.0,0.0,68,0.00,,,0.00,WeatherDisplay:10.36,2013-08-19 08:27:00,
2013-08-19 03:32:00,68.5,57.6,30.08,NE,38,0.0,0.0,68,0.00,,,0.00,WeatherDisplay:10.36,2013-08-19 08:32:00,
2013-08-19 03:37:00,68.4,57.4,30.08,NE,38,0.0,0.0,68,0.00,,,0.00,WeatherDisplay:10.36,2013-08-19 08:37:00,
2013-08-19 03:42:00,68.4,57.8,30.08,NE,38,0.0,0.0,69,0.00,,,0.00,WeatherDisplay:10.36,2013-08-19 08:42:00,
2013-08-19 03:47:00,68.2,57.6,30.08,NE,38,0.0,0.0,69,0.00,,,0.00,WeatherDisplay:10.36,2013-08-19 08:47:00,
2013-08-19 03:52:00,68.2,57.6,30.08,NE,38,0.0,0.0,69,0.00,,,0.00,WeatherDisplay:10.36,2013-08-19 08:52:00,
2013-08-19 03:57:00,68.0,57.4,30.08,NE,38,0.0,0.0,69,0.00,,,0.00,WeatherDisplay:10.36,2013-08-19 08:57:00,
2013-08-19 04:02:00,67.8,57.3,30.08,NE,39,0.0,0.0,69,0.00,,,0.00,WeatherDisplay:10.36,2013-08-19 09:02:00,
2013-08-19 04:07:00,67.8,57.3,30.08,NE,38,0.0,0.0,69,0.00,,,0.00,WeatherDisplay:10.36,2013-08-19 09:07:00,
2013-08-19 04:12:00,67.6,57.1,30.08,NE,38,0.0,0.0,69,0.00,,,0.00,WeatherDisplay:10.36,2013-08-19 09:12:00,
2013-08-19 04:17:00,67.6,57.1,30.08,NE,38,0.0,0.0,69,0.00,,,0.00,WeatherDisplay:10.36,2013-08-19 09:17:00,
2013-08-19 04:22:00,67.5,56.9,30.08,NE,39,0.0,0.0,69,0.00,,,0.00,WeatherDisplay:10.36,2013-08-19 09:22:00,
2013-08-19 04:27:00,67.3,56.8,30.08,NE,38,0.0,0.0,69,0.00,,,0.00,WeatherDisplay:10.36,2013-08-19 09:27:00,
2013-08-19 04:32:00,67.3,56.8,30.08,NE,38,0.0,0.0,69,0.00,,,0.00,WeatherDisplay:10.36,2013-08-19 09:32:00,
2013-08-19 04:37:00,67.1,56.6,30.08,NE,39,0.0,0.0,69,0.00,,,0.00,WeatherDisplay:10.36,2013-08-19 09:37:00,
2013-08-19 04:42:00,67.1,57.0,30.08,NE,38,0.0,0.0,70,0.00,,,0.00,WeatherDisplay:10.36,2013-08-19 09:42:00,
2013-08-19 04:47:00,66.9,56.8,30.08,NE,39,0.0,0.0,70,0.00,,,0.00,WeatherDisplay:10.36,2013-08-19 09:47:00,
2013-08-19 04:52:00,66.9,57.2,30.08,NE,38,0.0,0.0,71,0.00,,,0.00,WeatherDisplay:10.36,2013-08-19 09:52:00,
2013-08-19 04:57:00,66.9,57.2,30.08,NE,39,0.0,0.0,71,0.00,,,0.00,WeatherDisplay:10.36,2013-08-19 09:57:00,
2013-08-19 05:02:00,66.9,57.2,30.08,NE,38,0.0,0.0,71,0.00,,,0.00,WeatherDisplay:10.36,2013-08-19 10:02:00,
2013-08-19 05:07:00,66.9,57.6,30.08,NE,39,0.0,0.0,72,0.00,,,0.00,WeatherDisplay:10.36,2013-08-19 10:07:00,
2013-08-19 05:12:00,67.1,57.8,30.08,NE,38,0.0,0.0,72,0.00,,,0.00,WeatherDisplay:10.36,2013-08-19 10:12:00,
2013-08-19 05:16:00,67.1,58.2,30.08,NE,38,0.0,0.0,73,0.00,,,0.00,WeatherDisplay:10.36,2013-08-19 10:16:00,
2013-08-19 05:17:00,67.1,58.2,30.08,NE,38,0.0,0.0,73,0.00,,,0.00,WeatherDisplay:10.36,2013-08-19 10:17:00,
2013-08-19 05:22:00,67.1,58.2,30.08,NE,38,0.0,0.0,73,0.00,,,0.00,WeatherDisplay:10.36,2013-08-19 10:22:00,
2013-08-19 05:28:00,67.1,58.5,30.08,NE,38,0.0,0.0,74,0.00,,,0.00,WeatherDisplay:10.36,2013-08-19 10:28:00,
2013-08-19 05:33:00,67.1,58.9,30.08,NE,39,0.0,0.0,75,0.00,,,0.00,WeatherDisplay:10.36,2013-08-19 10:33:00,
2013-08-19 05:38:00,67.1,58.9,30.08,NE,38,0.0,0.0,75,0.00,,,0.00,WeatherDisplay:10.36,2013-08-19 10:38:00,
2013-08-19 05:43:00,67.1,58.9,30.08,NE,39,0.0,0.0,75,0.00,,,0.00,WeatherDisplay:10.36,2013-08-19 10:43:00,
2013-08-19 05:49:00,67.1,58.9,30.08,NE,38,0.0,0.0,75,0.00,,,0.00,WeatherDisplay:10.36,2013-08-19 10:49:00,
2013-08-19 05:54:00,67.1,58.9,30.08,NE,39,0.0,0.0,75,0.00,,,0.00,WeatherDisplay:10.36,2013-08-19 10:54:00,
2013-08-19 05:59:00,66.9,58.7,30.08,NE,39,0.0,0.0,75,0.00,,,0.00,WeatherDisplay:10.36,2013-08-19 10:59:00,
2013-08-19 06:04:00,66.7,58.6,30.08,NE,39,0.0,0.0,75,0.00,,,0.00,WeatherDisplay:10.36,2013-08-19 11:04:00,
2013-08-19 06:09:00,66.6,58.4,30.08,NE,38,0.0,0.0,75,0.00,,,0.00,WeatherDisplay:10.36,2013-08-19 11:09:00,
2013-08-19 06:14:00,66.4,58.2,30.08,NE,38,0.0,0.0,75,0.00,,,0.00,WeatherDisplay:10.36,2013-08-19 11:14:00,
2013-08-19 06:19:00,66.0,57.5,30.08,NE,38,0.0,0.0,74,0.00,,,0.00,WeatherDisplay:10.36,2013-08-19 11:19:00,
2013-08-19 06:24:00,66.0,57.9,30.08,NE,39,0.0,0.0,75,0.00,,,0.00,WeatherDisplay:10.36,2013-08-19 11:24:00,
2013-08-19 06:29:00,65.8,57.7,30.08,NE,39,0.0,0.0,75,0.00,,,0.00,WeatherDisplay:10.36,2013-08-19 11:29:00,
2013-08-19 06:34:00,65.8,57.7,30.11,NE,38,0.0,0.0,75,0.00,,,0.00,WeatherDisplay:10.36,2013-08-19 11:34:00,
2013-08-19 06:39:00,65.7,57.5,30.11,NE,38,0.0,0.0,75,0.00,,,0.00,WeatherDisplay:10.36,2013-08-19 11:39:00,
2013-08-19 06:44:00,65.7,57.9,30.11,NE,39,0.0,0.0,76,0.00,,,0.00,WeatherDisplay:10.36,2013-08-19 11:44:00,
2013-08-19 06:49:00,65.8,58.1,30.11,NE,39,0.0,0.0,76,0.00,,,0.00,WeatherDisplay:10.36,2013-08-19 11:49:00,
2013-08-19 06:54:00,65.8,58.1,30.11,NE,39,0.0,0.0,76,0.00,,,0.00,WeatherDisplay:10.36,2013-08-19 11:54:00,
2013-08-19 06:59:00,65.8,58.1,30.11,NE,39,0.0,0.0,76,0.00,,,0.00,WeatherDisplay:10.36,2013-08-19 11:59:00,
2013-08-19 07:04:00,65.8,58.4,30.11,NE,38,0.0,0.0,77,0.00,,,0.00,WeatherDisplay:10.36,2013-08-19 12:04:00,
2013-08-19 07:09:00,66.0,58.6,30.11,NE,39,0.0,0.0,77,0.00,,,0.00,WeatherDisplay:10.36,2013-08-19 12:09:00,
2013-08-19 07:14:00,66.0,58.6,30.11,NE,39,0.0,0.0,77,0.00,,,0.00,WeatherDisplay:10.36,2013-08-19 12:14:00,
2013-08-19 07:19:00,66.2,58.8,30.11,NE,39,0.0,0.0,77,0.00,,,0.00,WeatherDisplay:10.36,2013-08-19 12:19:00,
2013-08-19 07:24:00,66.4,58.9,30.11,NE,38,0.0,0.0,77,0.00,,,0.00,WeatherDisplay:10.36,2013-08-19 12:24:00,
2013-08-19 07:29:00,66.4,58.9,30.11,NE,38,0.0,0.0,77,0.00,,,0.00,WeatherDisplay:10.36,2013-08-19 12:29:00,
2013-08-19 07:34:00,66.6,59.1,30.11,NE,39,0.0,0.0,77,0.00,,,0.00,WeatherDisplay:10.36,2013-08-19 12:34:00,
2013-08-19 07:39:00,66.7,59.3,30.11,NE,39,0.0,0.0,77,0.00,,,0.00,WeatherDisplay:10.36,2013-08-19 12:39:00,
2013-08-19 07:44:00,67.1,59.6,30.11,NE,39,0.0,0.0,77,0.00,,,0.00,WeatherDisplay:10.36,2013-08-19 12:44:00,
2013-08-19 07:49:00,67.3,59.5,30.11,NE,38,0.0,0.0,76,0.00,,,0.00,WeatherDisplay:10.36,2013-08-19 12:49:00,
2013-08-19 07:54:00,67.5,59.6,30.11,NE,38,0.0,0.0,76,0.00,,,0.00,WeatherDisplay:10.36,2013-08-19 12:54:00,
2013-08-19 07:59:00,67.6,59.8,30.11,NE,38,0.0,0.0,76,0.00,,,0.00,WeatherDisplay:10.36,2013-08-19 12:59:00,
2013-08-19 08:04:00,68.0,60.2,30.11,NE,38,0.0,0.0,76,0.00,,,0.00,WeatherDisplay:10.36,2013-08-19 13:04:00,
2013-08-19 08:09:00,68.4,60.5,30.11,NE,38,0.0,0.0,76,0.00,,,0.00,WeatherDisplay:10.36,2013-08-19 13:09:00,
2013-08-19 08:14:00,68.9,60.6,30.11,NE,38,0.0,0.0,75,0.00,,,0.00,WeatherDisplay:10.36,2013-08-19 13:14:00,
2013-08-19 08:19:00,69.3,61.0,30.11,NE,38,0.0,0.0,75,0.00,,,0.00,WeatherDisplay:10.36,2013-08-19 13:19:00,
2013-08-19 08:24:00,69.4,60.8,30.11,NE,39,0.0,0.0,74,0.00,,,0.00,WeatherDisplay:10.36,2013-08-19 13:24:00,
2013-08-19 08:29:00,69.6,60.6,30.11,NE,39,0.0,0.0,73,0.00,,,0.00,WeatherDisplay:10.36,2013-08-19 13:29:00,
2013-08-19 08:34:00,69.8,60.8,30.11,NE,38,0.0,0.0,73,0.00,,,0.00,WeatherDisplay:10.36,2013-08-19 13:34:00,
2013-08-19 08:39:00,70.0,60.9,30.11,NE,38,0.0,0.0,73,0.00,,,0.00,WeatherDisplay:10.36,2013-08-19 13:39:00,
2013-08-19 08:44:00,70.3,60.9,30.11,NE,38,0.0,0.0,72,0.00,,,0.00,WeatherDisplay:10.36,2013-08-19 13:44:00,
2013-08-19 08:49:00,70.3,60.5,30.11,NE,38,0.0,0.0,71,0.00,,,0.00,WeatherDisplay:10.36,2013-08-19 13:49:00,
2013-08-19 08:55:00,70.5,60.7,30.11,NE,38,0.0,0.0,71,0.00,,,0.00,WeatherDisplay:10.36,2013-08-19 13:55:00,
2013-08-19 09:00:00,70.9,61.0,30.11,NE,38,0.0,0.0,71,0.00,,,0.00,WeatherDisplay:10.36,2013-08-19 14:00:00,
2013-08-19 09:05:00,71.1,61.2,30.11,NE,38,4.5,4.5,71,0.00,,,0.00,WeatherDisplay:10.36,2013-08-19 14:05:00,
2013-08-19 09:10:00,71.4,61.5,30.11,NE,38,0.0,0.0,71,0.00,,,0.00,WeatherDisplay:10.36,2013-08-19 14:10:00,
2013-08-19 09:15:00,71.6,61.7,30.11,NE,38,0.0,0.0,71,0.00,,,0.00,WeatherDisplay:10.36,2013-08-19 14:15:00,
2013-08-19 09:20:00,72.0,61.6,30.11,NE,39,0.0,0.0,70,0.00,,,0.00,WeatherDisplay:10.36,2013-08-19 14:20:00,
2013-08-19 09:25:00,72.3,62.0,30.11,NE,38,0.0,0.0,70,0.00,,,0.00,WeatherDisplay:10.36,2013-08-19 14:25:00,
2013-08-19 09:30:00,72.5,62.2,30.11,NE,38,0.0,0.0,70,0.00,,,0.00,WeatherDisplay:10.36,2013-08-19 14:30:00,
2013-08-19 09:35:00,72.7,61.9,30.11,NE,38,0.0,0.0,69,0.00,,,0.00,WeatherDisplay:10.36,2013-08-19 14:35:00,
2013-08-19 09:40:00,73.0,62.3,30.11,NE,38,0.0,0.0,69,0.00,,,0.00,WeatherDisplay:10.36,2013-08-19 14:40:00,
2013-08-19 09:45:00,73.6,62.4,30.11,NE,38,0.0,0.0,68,0.00,,,0.00,WeatherDisplay:10.36,2013-08-19 14:45:00,
2013-08-19 09:50:00,73.9,62.7,30.11,NE,37,0.0,0.0,68,0.00,,,0.00,WeatherDisplay:10.36,2013-08-19 14:50:00,
2013-08-19 09:55:00,74.1,62.9,30.11,NE,38,0.0,0.0,68,0.00,,,0.00,WeatherDisplay:10.36,2013-08-19 14:55:00,
2013-08-19 10:00:00,74.7,63.0,30.11,NE,38,0.0,0.0,67,0.00,,,0.00,WeatherDisplay:10.36,2013-08-19 15:00:00,
2013-08-19 10:06:00,75.0,63.3,30.11,NE,38,0.0,0.0,67,0.00,,,0.00,WeatherDisplay:10.36,2013-08-19 15:06:00,
2013-08-19 10:11:00,75.4,63.2,30.11,NE,38,0.0,0.0,66,0.00,,,0.00,WeatherDisplay:10.36,2013-08-19 15:11:00,
2013-08-19 10:16:00,75.7,63.6,30.11,NE,38,5.4,5.4,66,0.00,,,0.00,WeatherDisplay:10.36,2013-08-19 15:16:00,
2013-08-19 10:21:00,76.1,63.0,30.11,NE,38,0.0,0.0,64,0.00,,,0.00,WeatherDisplay:10.36,2013-08-19 15:21:00,
2013-08-19 10:27:00,76.6,62.6,30.11,NE,40,0.0,0.0,62,0.00,,,0.00,WeatherDisplay:10.36,2013-08-19 15:27:00,
2013-08-19 10:33:00,77.2,61.7,30.11,NE,39,3.1,0.0,59,0.00,,,0.00,WeatherDisplay:10.36,2013-08-19 15:33:00,
2013-08-19 10:38:00,77.4,61.4,30.11,NE,39,0.0,0.0,58,0.00,,,0.00,WeatherDisplay:10.36,2013-08-19 15:38:00,
2013-08-19 10:43:00,77.9,60.9,30.11,NE,41,0.0,0.0,56,0.00,,,0.00,WeatherDisplay:10.36,2013-08-19 15:43:00,
2013-08-19 10:48:00,78.3,60.2,30.11,NE,40,0.0,0.0,54,0.00,,,0.00,WeatherDisplay:10.36,2013-08-19 15:48:00,
2013-08-19 10:54:00,78.6,59.0,30.11,NE,38,4.6,0.0,51,0.00,,,0.00,WeatherDisplay:10.36,2013-08-19 15:54:00,
2013-08-19 10:59:00,78.8,58.6,30.11,NE,38,5.8,5.8,50,0.00,,,0.00,WeatherDisplay:10.36,2013-08-19 15:59:00,
2013-08-19 11:04:00,79.2,57.8,30.11,NE,35,5.8,5.8,48,0.00,,,0.00,WeatherDisplay:10.36,2013-08-19 16:04:00,
2013-08-19 11:09:00,79.3,56.8,30.11,NE,37,4.6,4.6,46,0.00,,,0.00,WeatherDisplay:10.36,2013-08-19 16:09:00,
2013-08-19 11:14:00,79.5,56.3,30.11,NE,39,6.9,6.9,45,0.00,,,0.00,WeatherDisplay:10.36,2013-08-19 16:14:00,
2013-08-19 11:19:00,79.7,55.9,30.11,NE,38,3.1,0.0,44,0.00,,,0.00,WeatherDisplay:10.36,2013-08-19 16:19:00,
2013-08-19 11:24:00,79.9,56.0,30.11,NE,39,7.4,7.4,44,0.00,,,0.00,WeatherDisplay:10.36,2013-08-19 16:24:00,
2013-08-19 11:29:00,80.1,55.5,30.11,NE,38,3.6,0.0,43,0.00,,,0.00,WeatherDisplay:10.36,2013-08-19 16:29:00,
2013-08-19 11:34:00,80.6,56.0,30.08,NE,40,4.0,4.0,43,0.00,,,0.00,WeatherDisplay:10.36,2013-08-19 16:34:00,
2013-08-19 11:39:00,81.0,56.4,30.08,NE,39,6.9,6.9,43,0.00,,,0.00,WeatherDisplay:10.36,2013-08-19 16:39:00,
2013-08-19 11:45:00,81.1,55.9,30.08,NE,38,6.9,6.9,42,0.00,,,0.00,WeatherDisplay:10.36,2013-08-19 16:45:00,
2013-08-19 11:51:00,81.7,55.7,30.08,NE,39,0.0,0.0,41,0.00,,,0.00,WeatherDisplay:10.36,2013-08-19 16:51:00,
2013-08-19 11:57:00,81.9,56.5,30.08,NE,39,6.7,6.7,42,0.00,,,0.00,WeatherDisplay:10.36,2013-08-19 16:57:00,
2013-08-19 12:02:00,82.0,56.0,30.08,NE,40,4.5,0.0,41,0.00,,,0.00,WeatherDisplay:10.36,2013-08-19 17:02:00,
2013-08-19 12:07:00,82.4,56.3,30.08,NE,38,6.9,6.9,41,0.00,,,0.00,WeatherDisplay:10.36,2013-08-19 17:07:00,
2013-08-19 12:12:00,82.4,56.3,30.08,NE,38,3.5,3.5,41,0.00,,,0.00,WeatherDisplay:10.36,2013-08-19 17:12:00,
2013-08-19 12:17:00,82.4,55.7,30.08,NE,38,5.4,5.4,40,0.00,,,0.00,WeatherDisplay:10.36,2013-08-19 17:17:00,
2013-08-19 12:23:00,82.6,55.8,30.08,NE,38,4.9,4.9,40,0.00,,,0.00,WeatherDisplay:10.36,2013-08-19 17:23:00,
2013-08-19 12:28:00,82.8,56.0,30.08,NE,37,6.9,6.9,40,0.00,,,0.00,WeatherDisplay:10.36,2013-08-19 17:28:00,
2013-08-19 12:33:00,82.9,55.4,30.08,NE,39,5.8,5.8,39,0.00,,,0.00,WeatherDisplay:10.36,2013-08-19 17:33:00,
2013-08-19 12:38:00,83.1,55.6,30.08,NE,38,6.3,6.3,39,0.00,,,0.00,WeatherDisplay:10.36,2013-08-19 17:38:00,
2013-08-19 12:43:00,83.1,55.6,30.08,NE,39,3.5,3.5,39,0.00,,,0.00,WeatherDisplay:10.36,2013-08-19 17:43:00,
2013-08-19 12:48:00,83.1,56.3,30.08,NE,39,0.0,0.0,40,0.00,,,0.00,WeatherDisplay:10.36,2013-08-19 17:48:00,
2013-08-19 12:53:00,83.1,56.3,30.08,NE,38,0.0,0.0,40,0.00,,,0.00,WeatherDisplay:10.36,2013-08-19 17:53:00,
2013-08-19 12:58:00,83.5,55.9,30.08,NE,38,6.9,6.9,39,0.00,,,0.00,WeatherDisplay:10.36,2013-08-19 17:58:00,
2013-08-19 13:03:00,84.0,56.4,30.08,NE,38,6.3,6.3,39,0.00,,,0.00,WeatherDisplay:10.36,2013-08-19 18:03:00,
2013-08-19 13:08:00,84.4,56.0,30.08,NE,38,6.9,6.9,38,0.00,,,0.00,WeatherDisplay:10.36,2013-08-19 18:08:00,
2013-08-19 13:13:00,84.4,52.9,30.08,North,351,2.7,0.0,34,0.00,,,0.00,WeatherDisplay:10.36,2013-08-19 18:13:00,
2013-08-19 13:19:00,84.6,53.1,30.06,NE,39,4.5,0.0,34,0.00,,,0.00,WeatherDisplay:10.36,2013-08-19 18:19:00,
2013-08-19 13:24:00,84.7,54.1,30.06,NE,36,5.8,5.8,35,0.00,,,0.00,WeatherDisplay:10.36,2013-08-19 18:24:00,
2013-08-19 13:29:00,85.1,54.4,30.06,NE,39,5.8,5.8,35,0.00,,,0.00,WeatherDisplay:10.36,2013-08-19 18:29:00,
2013-08-19 13:34:00,85.5,53.9,30.06,NE,35,4.6,4.6,34,0.00,,,0.00,WeatherDisplay:10.36,2013-08-19 18:34:00,
2013-08-19 13:39:00,85.6,53.2,30.06,NE,36,5.4,5.4,33,0.00,,,0.00,WeatherDisplay:10.36,2013-08-19 18:39:00,
2013-08-19 13:44:00,85.8,54.2,30.06,NE,38,6.7,6.7,34,0.00,,,0.00,WeatherDisplay:10.36,2013-08-19 18:44:00,
2013-08-19 13:49:00,86.0,53.5,30.06,NE,38,3.5,3.5,33,0.00,,,0.00,WeatherDisplay:10.36,2013-08-19 18:49:00,
2013-08-19 13:54:00,86.0,53.5,30.06,NE,38,0.0,0.0,33,0.00,,,0.00,WeatherDisplay:10.36,2013-08-19 18:54:00,
2013-08-19 13:59:00,85.8,53.4,30.06,NE,38,8.3,8.3,33,0.00,,,0.00,WeatherDisplay:10.36,2013-08-19 18:59:00,
2013-08-19 14:04:00,85.8,52.5,30.06,NE,36,3.6,3.6,32,0.00,,,0.00,WeatherDisplay:10.36,2013-08-19 19:04:00,
2013-08-19 14:09:00,85.8,52.5,30.06,NE,39,8.1,8.1,32,0.00,,,0.00,WeatherDisplay:10.36,2013-08-19 19:09:00,
2013-08-19 14:14:00,85.6,52.4,30.06,NE,39,6.3,6.3,32,0.00,,,0.00,WeatherDisplay:10.36,2013-08-19 19:14:00,
2013-08-19 14:19:00,86.0,52.7,30.06,NE,38,5.8,5.8,32,0.00,,,0.00,WeatherDisplay:10.36,2013-08-19 19:19:00,
2013-08-19 14:24:00,86.2,52.9,30.06,NE,37,3.5,0.0,32,0.00,,,0.00,WeatherDisplay:10.36,2013-08-19 19:24:00,
2013-08-19 14:30:00,86.4,53.0,30.06,NE,39,6.3,6.3,32,0.00,,,0.00,WeatherDisplay:10.36,2013-08-19 19:30:00,
2013-08-19 14:35:00,86.4,53.0,30.06,NE,37,6.9,6.9,32,0.00,,,0.00,WeatherDisplay:10.36,2013-08-19 19:35:00,
2013-08-19 14:40:00,86.2,52.9,30.06,NE,42,3.5,0.0,32,0.00,,,0.00,WeatherDisplay:10.36,2013-08-19 19:40:00,
2013-08-19 14:45:00,86.5,53.2,30.06,NE,37,4.9,4.9,32,0.00,,,0.00,WeatherDisplay:10.36,2013-08-19 19:45:00,
2013-08-19 14:50:00,86.5,52.3,30.06,NE,37,6.9,6.9,31,0.00,,,0.00,WeatherDisplay:10.36,2013-08-19 19:50:00,
2013-08-19 14:55:00,86.5,52.3,30.06,NE,37,4.9,4.9,31,0.00,,,0.00,WeatherDisplay:10.36,2013-08-19 19:55:00,
2013-08-19 15:00:00,86.5,53.2,30.06,NE,36,3.5,3.5,32,0.00,,,0.00,WeatherDisplay:10.36,2013-08-19 20:00:00,
2013-08-19 15:05:00,86.4,52.2,30.06,NE,38,6.3,6.3,31,0.00,,,0.00,WeatherDisplay:10.36,2013-08-19 20:05:00,
2013-08-19 15:10:00,85.8,51.7,30.06,NE,40,5.8,5.8,31,0.00,,,0.00,WeatherDisplay:10.36,2013-08-19 20:10:00,
2013-08-19 15:15:00,85.6,52.4,30.06,NE,37,3.6,3.6,32,0.00,,,0.00,WeatherDisplay:10.36,2013-08-19 20:15:00,
2013-08-19 15:20:00,85.8,52.5,30.06,NE,38,6.3,6.3,32,0.00,,,0.00,WeatherDisplay:10.36,2013-08-19 20:20:00,
2013-08-19 15:25:00,85.8,52.5,30.06,NE,37,6.9,6.9,32,0.00,,,0.00,WeatherDisplay:10.36,2013-08-19 20:25:00,
2013-08-19 15:30:00,85.6,52.4,30.06,NE,36,6.3,6.3,32,0.00,,,0.00,WeatherDisplay:10.36,2013-08-19 20:30:00,
2013-08-19 15:35:00,85.6,52.4,30.03,NE,38,5.8,5.8,32,0.00,,,0.00,WeatherDisplay:10.36,2013-08-19 20:35:00,
2013-08-19 15:41:00,85.6,52.4,30.03,NE,38,5.4,0.0,32,0.00,,,0.00,WeatherDisplay:10.36,2013-08-19 20:41:00,
2013-08-19 15:46:00,85.6,52.4,30.03,NE,38,8.1,8.1,32,0.00,,,0.00,WeatherDisplay:10.36,2013-08-19 20:46:00,
2013-08-19 15:51:00,85.8,52.5,30.03,NE,37,6.9,0.0,32,0.00,,,0.00,WeatherDisplay:10.36,2013-08-19 20:51:00,
2013-08-19 15:56:00,86.0,51.8,30.03,NE,36,4.5,4.5,31,0.00,,,0.00,WeatherDisplay:10.36,2013-08-19 20:56:00,
2013-08-19 16:01:00,86.2,52.0,30.03,NE,35,4.5,4.5,31,0.00,,,0.00,WeatherDisplay:10.36,2013-08-19 21:01:00,
2013-08-19 16:06:00,86.4,52.2,30.03,NE,37,6.9,6.9,31,0.00,,,0.00,WeatherDisplay:10.36,2013-08-19 21:06:00,
2013-08-19 16:12:00,86.5,52.3,30.03,NE,38,0.0,4.0,31,0.00,,,0.00,WeatherDisplay:10.36,2013-08-19 21:12:00,
2013-08-19 16:17:00,86.7,52.5,30.03,NE,38,5.8,5.8,31,0.00,,,0.00,WeatherDisplay:10.36,2013-08-19 21:17:00,
2013-08-19 16:22:00,86.7,52.5,30.03,NE,37,5.4,5.4,31,0.00,,,0.00,WeatherDisplay:10.36,2013-08-19 21:22:00,
2013-08-19 16:27:00,86.7,52.5,30.03,NE,38,8.1,8.1,31,0.00,,,0.00,WeatherDisplay:10.36,2013-08-19 21:27:00,
2013-08-19 16:32:00,86.7,52.5,30.03,NE,40,4.0,4.0,31,0.00,,,0.00,WeatherDisplay:10.36,2013-08-19 21:32:00,
2013-08-19 16:37:00,86.7,51.6,30.03,NE,39,4.5,0.0,30,0.00,,,0.00,WeatherDisplay:10.36,2013-08-19 21:37:00,
2013-08-19 16:42:00,86.5,52.3,30.03,NE,39,4.0,0.0,31,0.00,,,0.00,WeatherDisplay:10.36,2013-08-19 21:42:00,
2013-08-19 16:47:00,86.4,52.2,30.03,NE,38,4.5,4.5,31,0.00,,,0.00,WeatherDisplay:10.36,2013-08-19 21:47:00,
2013-08-19 16:52:00,86.2,52.0,30.03,NE,42,5.8,5.8,31,0.00,,,0.00,WeatherDisplay:10.36,2013-08-19 21:52:00,
2013-08-19 16:57:00,86.2,52.0,30.03,NE,39,4.5,4.5,31,0.00,,,0.00,WeatherDisplay:10.36,2013-08-19 21:57:00,
2013-08-19 17:02:00,86.0,51.8,30.03,NE,38,5.8,5.8,31,0.00,,,0.00,WeatherDisplay:10.36,2013-08-19 22:02:00,
2013-08-19 17:08:00,85.8,52.5,30.03,NE,38,9.2,9.2,32,0.00,,,0.00,WeatherDisplay:10.36,2013-08-19 22:08:00,
2013-08-19 17:14:00,86.0,52.7,30.03,NE,40,6.9,6.9,32,0.00,,,0.00,WeatherDisplay:10.36,2013-08-19 22:14:00,
2013-08-19 17:19:00,86.0,51.8,30.03,NE,38,4.6,4.6,31,0.00,,,0.00,WeatherDisplay:10.36,2013-08-19 22:19:00,
2013-08-19 17:24:00,86.0,51.8,30.03,NE,37,6.9,6.9,31,0.00,,,0.00,WeatherDisplay:10.36,2013-08-19 22:24:00,
2013-08-19 17:29:00,86.0,52.7,30.03,NE,37,7.8,7.8,32,0.00,,,0.00,WeatherDisplay:10.36,2013-08-19 22:29:00,
2013-08-19 17:34:00,85.8,52.5,30.03,NE,38,4.9,4.9,32,0.00,,,0.00,WeatherDisplay:10.36,2013-08-19 22:34:00,
2013-08-19 17:39:00,85.8,52.5,30.03,NE,36,6.3,6.3,32,0.00,,,0.00,WeatherDisplay:10.36,2013-08-19 22:39:00,
2013-08-19 17:44:00,85.8,52.5,30.03,NE,37,6.3,6.3,32,0.00,,,0.00,WeatherDisplay:10.36,2013-08-19 22:44:00,
2013-08-19 17:49:00,85.5,52.2,30.00,NE,37,8.1,8.1,32,0.00,,,0.00,WeatherDisplay:10.36,2013-08-19 22:49:00,
2013-08-19 17:54:00,85.3,52.1,30.00,NE,36,6.9,6.9,32,0.00,,,0.00,WeatherDisplay:10.36,2013-08-19 22:54:00,
2013-08-19 17:59:00,85.1,52.8,30.00,NE,38,8.1,8.1,33,0.00,,,0.00,WeatherDisplay:10.36,2013-08-19 22:59:00,
2013-08-19 18:04:00,84.9,52.6,30.00,NE,37,6.7,6.7,33,0.00,,,0.00,WeatherDisplay:10.36,2013-08-19 23:04:00,
2013-08-19 18:10:00,84.6,52.3,30.00,NE,39,5.8,5.8,33,0.00,,,0.00,WeatherDisplay:10.36,2013-08-19 23:10:00,
2013-08-19 18:15:00,84.6,53.1,30.00,NE,38,3.6,3.6,34,0.00,,,0.00,WeatherDisplay:10.36,2013-08-19 23:15:00,
2013-08-19 18:20:00,84.4,52.9,30.00,NE,38,3.6,3.6,34,0.00,,,0.00,WeatherDisplay:10.36,2013-08-19 23:20:00,
2013-08-19 18:25:00,84.2,52.8,30.00,NNE,30,4.9,0.0,34,0.00,,,0.00,WeatherDisplay:10.36,2013-08-19 23:25:00,
2013-08-19 18:30:00,84.0,54.2,30.00,NE,36,3.6,3.6,36,0.00,,,0.00,WeatherDisplay:10.36,2013-08-19 23:30:00,
2013-08-19 18:36:00,83.8,55.5,30.00,NE,37,3.6,3.6,38,0.00,,,0.00,WeatherDisplay:10.36,2013-08-19 23:36:00,
2013-08-19 18:41:00,83.8,56.2,30.00,NE,37,4.0,0.0,39,0.00,,,0.00,WeatherDisplay:10.36,2013-08-19 23:41:00,
2013-08-19 18:46:00,83.8,56.2,30.00,NE,38,4.0,0.0,39,0.00,,,0.00,WeatherDisplay:10.36,2013-08-19 23:46:00,
2013-08-19 18:51:00,83.7,56.1,30.00,NE,38,3.1,3.6,39,0.00,,,0.00,WeatherDisplay:10.36,2013-08-19 23:51:00,
2013-08-19 18:56:00,83.5,56.6,30.00,NE,38,5.8,5.8,40,0.00,,,0.00,WeatherDisplay:10.36,2013-08-19 23:56:00,
2013-08-19 19:01:00,83.5,56.6,30.00,NE,37,0.0,0.0,40,0.00,,,0.00,WeatherDisplay:10.36,2013-08-20 00:01:00,
2013-08-19 19:06:00,83.5,56.6,30.00,NE,38,0.0,3.1,40,0.00,,,0.00,WeatherDisplay:10.36,2013-08-20 00:06:00,
2013-08-19 19:11:00,83.3,56.5,30.00,NE,37,5.8,5.8,40,0.00,,,0.00,WeatherDisplay:10.36,2013-08-20 00:11:00,
2013-08-19 19:16:00,82.9,56.8,30.03,NE,37,4.5,4.5,41,0.00,,,0.00,WeatherDisplay:10.36,2013-08-20 00:16:00,
2013-08-19 19:21:00,82.8,56.7,30.03,NE,37,4.5,4.5,41,0.00,,,0.00,WeatherDisplay:10.36,2013-08-20 00:21:00,
2013-08-19 19:26:00,82.6,56.5,30.03,NE,39,5.8,5.8,41,0.00,,,0.00,WeatherDisplay:10.36,2013-08-20 00:26:00,
2013-08-19 19:31:00,82.2,56.8,30.03,NE,38,0.0,0.0,42,0.00,,,0.00,WeatherDisplay:10.36,2013-08-20 00:31:00,
2013-08-19 19:36:00,82.0,57.3,30.03,NE,38,0.0,0.0,43,0.00,,,0.00,WeatherDisplay:10.36,2013-08-20 00:36:00,
2013-08-19 19:41:00,81.7,57.0,30.03,NE,38,0.0,0.0,43,0.00,,,0.00,WeatherDisplay:10.36,2013-08-20 00:41:00,
2013-08-19 19:46:00,81.5,56.8,30.03,NE,36,0.0,0.0,43,0.00,,,0.00,WeatherDisplay:10.36,2013-08-20 00:46:00,
2013-08-19 19:51:00,81.1,56.5,30.03,NNE,32,0.0,0.0,43,0.00,,,0.00,WeatherDisplay:10.36,2013-08-20 00:51:00,
2013-08-19 19:56:00,81.0,57.0,30.03,NE,36,0.0,0.0,44,0.00,,,0.00,WeatherDisplay:10.36,2013-08-20 00:56:00,
2013-08-19 20:01:00,80.8,56.8,30.03,NE,36,0.0,0.0,44,0.00,,,0.00,WeatherDisplay:10.36,2013-08-20 01:01:00,
2013-08-19 20:06:00,80.6,56.7,30.03,NNE,33,0.0,0.0,44,0.00,,,0.00,WeatherDisplay:10.36,2013-08-20 01:06:00,
2013-08-19 20:11:00,80.4,56.5,30.03,NE,35,0.0,0.0,44,0.00,,,0.00,WeatherDisplay:10.36,2013-08-20 01:11:00,
2013-08-19 20:16:00,80.2,56.3,30.03,NE,35,0.0,0.0,44,0.00,,,0.00,WeatherDisplay:10.36,2013-08-20 01:16:00,
2013-08-19 20:21:00,80.1,56.8,30.03,NE,35,0.0,0.0,45,0.00,,,0.00,WeatherDisplay:10.36,2013-08-20 01:21:00,
2013-08-19 20:26:00,79.9,56.6,30.03,NE,37,0.0,0.0,45,0.00,,,0.00,WeatherDisplay:10.36,2013-08-20 01:26:00,
2013-08-19 20:31:00,79.7,57.1,30.03,NE,39,0.0,0.0,46,0.00,,,0.00,WeatherDisplay:10.36,2013-08-20 01:31:00,
2013-08-19 20:36:00,79.5,57.5,30.03,NE,37,4.0,4.0,47,0.00,,,0.00,WeatherDisplay:10.36,2013-08-20 01:36:00,
2013-08-19 20:41:00,79.3,57.4,30.03,NE,38,0.0,0.0,47,0.00,,,0.00,WeatherDisplay:10.36,2013-08-20 01:41:00,
2013-08-19 20:46:00,79.2,57.2,30.03,NE,37,0.0,0.0,47,0.00,,,0.00,WeatherDisplay:10.36,2013-08-20 01:46:00,
2013-08-19 20:51:00,79.2,57.8,30.03,NE,37,0.0,0.0,48,0.00,,,0.00,WeatherDisplay:10.36,2013-08-20 01:51:00,
2013-08-19 20:56:00,79.0,57.6,30.03,NE,38,0.0,0.0,48,0.00,,,0.00,WeatherDisplay:10.36,2013-08-20 01:56:00,
2013-08-19 21:01:00,78.8,57.4,30.03,NE,37,0.0,0.0,48,0.00,,,0.00,WeatherDisplay:10.36,2013-08-20 02:01:00,
2013-08-19 21:06:00,78.8,58.0,30.03,NE,39,0.0,3.6,49,0.00,,,0.00,WeatherDisplay:10.36,2013-08-20 02:06:00,
2013-08-19 21:11:00,78.6,57.9,30.03,NE,37,0.0,0.0,49,0.00,,,0.00,WeatherDisplay:10.36,2013-08-20 02:11:00,
2013-08-19 21:16:00,78.6,58.4,30.03,NE,35,0.0,0.0,50,0.00,,,0.00,WeatherDisplay:10.36,2013-08-20 02:16:00,
2013-08-19 21:21:00,78.4,58.3,30.03,NE,37,0.0,0.0,50,0.00,,,0.00,WeatherDisplay:10.36,2013-08-20 02:21:00,
2013-08-19 21:26:00,78.4,58.3,30.03,NE,39,0.0,0.0,50,0.00,,,0.00,WeatherDisplay:10.36,2013-08-20 02:26:00,
2013-08-19 21:31:00,78.3,58.6,30.03,NE,38,0.0,0.0,51,0.00,,,0.00,WeatherDisplay:10.36,2013-08-20 02:31:00,
2013-08-19 21:36:00,78.1,58.5,30.03,NE,39,0.0,0.0,51,0.00,,,0.00,WeatherDisplay:10.36,2013-08-20 02:36:00,
2013-08-19 21:41:00,77.9,58.3,30.03,NE,37,0.0,0.0,51,0.00,,,0.00,WeatherDisplay:10.36,2013-08-20 02:41:00,
2013-08-19 21:46:00,77.7,58.7,30.03,NE,38,0.0,0.0,52,0.00,,,0.00,WeatherDisplay:10.36,2013-08-20 02:46:00,
2013-08-19 21:51:00,77.7,58.7,30.03,NE,37,0.0,0.0,52,0.00,,,0.00,WeatherDisplay:10.36,2013-08-20 02:51:00,
2013-08-19 21:56:00,77.5,58.5,30.03,NE,38,0.0,0.0,52,0.00,,,0.00,WeatherDisplay:10.36,2013-08-20 02:56:00,
2013-08-19 22:01:00,77.4,58.9,30.03,NE,38,0.0,0.0,53,0.00,,,0.00,WeatherDisplay:10.36,2013-08-20 03:01:00,
2013-08-19 22:06:00,77.2,58.7,30.03,NE,38,0.0,0.0,53,0.00,,,0.00,WeatherDisplay:10.36,2013-08-20 03:06:00,
2013-08-19 22:11:00,77.0,58.6,30.03,NE,38,0.0,0.0,53,0.00,,,0.00,WeatherDisplay:10.36,2013-08-20 03:11:00,
2013-08-19 22:16:00,77.0,58.6,30.03,NE,38,0.0,0.0,53,0.00,,,0.00,WeatherDisplay:10.36,2013-08-20 03:16:00,
2013-08-19 22:21:00,77.0,58.6,30.03,NE,39,0.0,0.0,53,0.00,,,0.00,WeatherDisplay:10.36,2013-08-20 03:21:00,
2013-08-19 22:26:00,76.8,58.4,30.03,NE,39,0.0,0.0,53,0.00,,,0.00,WeatherDisplay:10.36,2013-08-20 03:26:00,
2013-08-19 22:31:00,76.8,58.4,30.03,NE,38,0.0,0.0,53,0.00,,,0.00,WeatherDisplay:10.36,2013-08-20 03:31:00,
2013-08-19 22:36:00,76.6,58.2,30.03,NE,39,0.0,0.0,53,0.00,,,0.00,WeatherDisplay:10.36,2013-08-20 03:36:00,
2013-08-19 22:41:00,76.6,58.2,30.03,NE,38,2.3,0.0,53,0.00,,,0.00,WeatherDisplay:10.36,2013-08-20 03:41:00,
2013-08-19 22:46:00,76.6,58.2,30.03,NE,38,0.0,0.0,53,0.00,,,0.00,WeatherDisplay:10.36,2013-08-20 03:46:00,
2013-08-19 22:51:00,76.5,58.6,30.03,NE,38,0.0,0.0,54,0.00,,,0.00,WeatherDisplay:10.36,2013-08-20 03:51:00,
2013-08-19 22:56:00,76.5,58.6,30.03,NE,38,0.0,0.0,54,0.00,,,0.00,WeatherDisplay:10.36,2013-08-20 03:56:00,
2013-08-19 23:01:00,76.3,58.4,30.03,NE,38,0.0,0.0,54,0.00,,,0.00,WeatherDisplay:10.36,2013-08-20 04:01:00,
2013-08-19 23:02:00,76.3,58.4,30.03,NE,39,0.0,0.0,54,0.00,,,0.00,WeatherDisplay:10.36,2013-08-20 04:02:00,
2013-08-19 23:03:00,76.3,58.4,30.03,NE,39,0.0,0.0,54,0.00,,,0.00,WeatherDisplay:10.36,2013-08-20 04:03:00,
2013-08-19 23:04:00,76.3,58.4,30.03,NE,38,0.0,0.0,54,0.00,,,0.00,WeatherDisplay:10.36,2013-08-20 04:04:00,
2013-08-19 23:09:00,76.1,58.2,30.03,NE,38,0.0,0.0,54,0.00,,,0.00,WeatherDisplay:10.36,2013-08-20 04:09:00,
2013-08-19 23:14:00,76.1,58.8,30.03,NE,39,0.0,0.0,55,0.00,,,0.00,WeatherDisplay:10.36,2013-08-20 04:14:00,
2013-08-19 23:18:00,75.9,58.6,30.03,NE,39,0.0,0.0,55,0.00,,,0.00,WeatherDisplay:10.36,2013-08-20 04:18:00,
2013-08-19 23:23:00,75.7,58.4,30.03,NE,39,0.0,0.0,55,0.00,,,0.00,WeatherDisplay:10.36,2013-08-20 04:23:00,
2013-08-19 23:28:00,75.7,58.4,30.03,NE,39,0.0,0.0,55,0.00,,,0.00,WeatherDisplay:10.36,2013-08-20 04:28:00,
2013-08-19 23:33:00,75.6,58.3,30.03,NE,39,0.0,0.0,55,0.00,,,0.00,WeatherDisplay:10.36,2013-08-20 04:33:00,
2013-08-19 23:38:00,75.4,58.6,30.03,NE,39,0.0,0.0,56,0.00,,,0.00,WeatherDisplay:10.36,2013-08-20 04:38:00,
2013-08-19 23:43:00,75.0,58.3,30.03,NE,38,0.0,0.0,56,0.00,,,0.00,WeatherDisplay:10.36,2013-08-20 04:43:00,
2013-08-19 23:48:00,74.8,58.6,30.06,NE,38,0.0,0.0,57,0.00,,,0.00,WeatherDisplay:10.36,2013-08-20 04:48:00,
2013-08-19 23:53:00,74.8,58.6,30.06,NE,38,0.0,0.0,57,0.00,,,0.00,WeatherDisplay:10.36,2013-08-20 04:53:00,
2013-08-19 23:58:00,74.7,58.9,30.06,NE,39,0.0,0.0,58,0.00,,,0.00,WeatherDisplay:10.36,2013-08-20 04:58:00,